Location: Bruch
(44.2051°N, 0.4120°E)
Time: 06:26:49
(UTC+00:00)

ATLAS CENTAUR R/B - Pass Details

Date: 29 November 2020
Orbit: 477 x 668 km, 64.7° (Epoch: 25 January)

Event Time Altitude Azimuth Distance (km) Brightness Sun altitude
Exits shadow 06:08:43 15° 307° (NW) 1,409 2.8 -11.1°
Maximum altitude 06:11:31 41° 241° (WSW) 753 1.7 -10.6°
Drops below altitude 10° 06:15:16 10° 170° (S) 1,782 4.3 -10.0°
Sets 06:17:36 0° 163° (SSE) 2,703 5.4 -9.6°
